Location: Unspecified
(22.6800°N, 112.2000°E)
Time: 04:42:47
(UTC+08:00)

S-56A Canister/Altair - Pass Details

Date: 24 July 2021
Orbit: 632 x 2500 km, 38.9° (Epoch: 27 September)

Event Time Altitude Azimuth Distance (km) Brightness Sun altitude
Rises 21:47:00 0° 299° (WNW) 6,017 13.2 -30.5°
Reaches altitude 10° 21:51:38 10° 306° (NW) 4,832 12.5 -31.3°
Maximum altitude 22:03:42 41° 13° (NNE) 2,403 10.1 -33.3°
Enters shadow 22:08:13 28° 61° (ENE) 2,611 10.0 -34.0°
Drops below altitude 10° 22:12:11 10° 81° (E) 3,426 - -34.7°
Sets 22:14:52 0° 89° (E) 4,160 - -35.1°
